Location: Smithsonian NASM Public Observatory
(38.8879°N, 77.0185°W)
Time: 07:08:58
(UTC-04:00)

Daily predictions for brighter satellites

Satellite Brightness Start Highest point End
(mag) Time Altitude Azimuth Time Altitude Azimuth Time Altitude Azimuth
Meteor 1-29 3.6 20:53:46 10° NNE 20:56:51 33° E 20:59:55 10° SSE
Cosmos 1743 3.4 20:53:43 10° NNW 20:57:34 59° W 21:01:24 10° S
Resurs 1-3 4.3 20:56:08 10° S 21:00:26 58° W 21:04:47 10° NNW
Cosmos 1697 Rocket 4.3 20:57:44 10° N 21:01:48 20° NE 21:05:51 10° E
Cosmos 2074 Rocket 4.1 20:56:48 10° N 21:03:06 87° W 21:09:23 10° S
Aureole 1 Rocket 4.1 21:01:48 10° SW 21:04:42 34° WNW 21:07:28 10° N
Helios 1A 3.0 21:02:38 10° SSE 21:06:49 69° ENE 21:10:59 10° N
Cosmos 1666 3.1 21:06:01 10° NNW 21:09:43 63° W 21:13:26 10° S
Cosmos 2184 Rocket 4.2 21:04:42 10° N 21:11:02 79° W 21:17:16 10° S
CZ-4B DEB 2.8 21:08:40 10° SSE 21:11:34 51° ENE 21:14:29 10° N
Cosmos 2369 4.2 21:07:34 10° N 21:13:04 46° ENE 21:18:16 11° SE
Helios 1B rocket 2.4 21:10:27 10° NNE 21:14:37 81° ESE 21:18:45 10° S
Cosmos 1833 Rocket 3.3 21:10:06 10° S 21:15:09 36° ESE 21:20:15 10° NE
Meteor 2-9 Rocket 4.3 21:12:14 10° N 21:17:48 83° W 21:23:30 10° S
Cosmos 1624 Rocket 4.0 21:14:48 10° NNW 21:20:07 79° ENE 21:25:26 10° SSE
Cosmos 921 Rocket 3.5 21:16:52 10° N 21:21:11 46° ENE 21:24:51 13° SE
Cosmos 2228 4.2 21:19:05 10° NNE 21:22:40 25° ENE 21:25:24 14° SE
Meteor 1-15 Rocket 4.2 21:17:10 10° N 21:22:44 74° E 21:28:17 10° SSE
Resurs 01 Rocket 3.6 21:20:21 10° SSW 21:24:08 28° W 21:27:56 10° NW
SJ-11-01 4.4 21:23:54 10° S 21:28:35 80° WSW 21:33:20 10° NNW
SPOT 5 4.1 21:25:57 13° ESE 21:28:43 23° ENE 21:32:09 10° NNE
Okean 2 3.3 21:25:07 10° S 21:29:11 89° W 21:33:18 10° N
H-2A R/B 4.3 13:55:15 10° SW 21:29:15 44° SW 21:35:40 14° SSE
Nadezhda 1 Rocket 4.4 21:23:52 10° SSW 21:30:12 69° W 21:36:36 10° N
Envisat 3.6 21:31:03 10° S 21:36:01 56° W 21:41:02 10° NNW
Lacrosse 5 3.8 21:39:42 11° E 21:39:42 11° E 21:40:18 10° E
H-2A R/B 3.5 21:35:35 13° ESE 21:38:30 22° ENE 21:42:18 10° NNE
Cosmos 2056 Rocket 3.6 21:35:01 10° NNW 21:40:08 73° WSW 21:44:53 12° S
OAO 2 Rocket 4.2 21:36:58 10° W 21:41:20 32° SSW 21:44:11 18° SSE
Cosmos 1515 3.6 21:38:06 10° S 21:41:54 82° E 21:45:43 10° N
ISS -0.5 21:43:09 10° NW 21:44:21 11° NNW 21:45:34 10° N
SL-8 Rocket 4.4 21:39:36 10° N 21:45:37 46° ENE 21:49:59 19° SE
ARGOS 3.7 21:43:10 18° SE 21:46:50 43° ENE 21:51:56 10° N
Cosmos 839 Rocket 4.4 21:41:19 10° NNW 21:48:03 89° WSW 21:54:43 17° SSE
GPS 2-04 Rocket1 3.9 21:46:47 10° SSW 21:48:46 19° S 21:48:46 19° S
Cosmos 1437 Rocket 3.4 21:46:02 10° NNW 21:49:50 55° W 21:53:29 11° S
Cosmos 1892 Rocket 3.6 21:46:16 10° S 21:50:41 86° W 21:55:06 10° N
Cosmos 1980 Rocket 3.4 21:47:15 10° N 21:52:10 29° ENE 21:55:24 17° ESE
Cosmos 1602 Rocket 4.4 21:53:36 24° SE 21:55:14 32° E 21:59:04 10° NNE
Cosmos 2154 Rocket 4.4 21:49:30 10° NNW 21:55:48 65° W 22:02:03 10° S
MetOp-B 4.2 21:54:11 20° SSE 21:57:57 69° ENE 22:03:17 10° N
Hubble Space Telescope 2.4 21:56:11 10° SW 21:58:52 18° S 21:58:52 18° S
Cosmos 1606 Rocket 4.2 21:57:14 10° NNW 22:01:26 54° W 22:05:11 13° S
CZ-3A R/B 2.2 21:58:57 10° WSW 22:02:24 30° NW 22:04:00 10° NNE
Cosmos 2322 Rocket 4.3 22:01:46 10° NNE 22:04:53 15° NE 22:08:00 10° E
ERS-1 Rocket 3.1 22:01:26 17° S 22:05:20 72° WSW 22:10:22 10° NNW
Meteor 1-4 Rocket 2.8 22:03:27 10° N 22:06:55 49° E 22:07:49 38° SE
Cosmos 1726 Rocket 4.2 22:05:20 10° NNW 22:09:33 53° W 22:12:50 16° SSW
YAOGAN 6 4.1 22:07:41 13° SSW 22:10:25 32° W 22:13:36 10° NNW
NOAA 11 4.2 22:06:32 20° S 22:10:25 83° WSW 22:15:53 10° NNW
Cosmos 1452 Rocket 3.5 22:06:29 10° NNW 22:11:47 86° ENE 22:14:43 27° SSE
COSMOS 2487 4.4 22:08:38 10° SW 22:11:49 30° WNW 22:15:02 10° N
Tiangong 2 1.6 22:13:13 10° WNW 22:16:22 54° NNE 22:17:23 35° ENE
Nimbus 7 Rocket 4.4 22:18:27 10° NNE 22:24:32 72° ESE 22:28:50 20° S
Cosmos 1766 3.7 22:21:29 10° N 22:25:12 41° E 22:25:39 39° E
Cosmos 1953 4.2 22:24:45 10° NNE 22:27:28 17° ENE 22:27:32 17° ENE
Meteor 1-21 4.4 22:25:57 32° SSE 22:28:20 53° E 22:33:55 10° NNE
USA 245 3.2 22:29:30 42° NW 22:29:30 42° NW 22:31:10 10° NNW
Landsat 7 4.3 22:27:34 35° ESE 22:29:00 47° ENE 22:33:33 10° N
USA 229 DEB 4.0 22:22:05 10° NNW 22:29:12 63° NE 22:33:04 29° SE
USA 229 4.0 22:22:11 10° NNW 22:29:18 63° NE 22:33:10 29° SE
SPOT 1/Viking Rocket 3.5 22:27:59 35° SSE 22:30:11 75° ENE 22:35:21 10° N
Cosmos 2082 Rocket 3.1 22:24:55 10° SW 22:30:22 48° WNW 22:35:51 10° NNE
Cosmos 158 Rocket 3.9 22:31:05 22° SSW 22:34:32 81° ESE 22:39:56 10° NNE
Cosmos 2058 Rocket 4.3 22:30:42 10° NNW 22:34:49 38° W 22:37:34 19° SSW
Cosmos 1656 4.3 22:30:57 10° NNW 22:36:12 49° WSW 22:39:02 26° SSW
SL-08 R/B 4.4 22:31:24 10° N 22:37:33 87° E 22:40:35 32° S
Timation 2 Rocket 4.1 22:32:59 10° SSW 22:39:22 75° WNW 22:45:31 10° NNE
Cosmos 2218 Rocket 4.0 22:33:46 10° N 22:39:57 79° W 22:43:21 29° S
SL-08 RB Rocket 3.9 22:42:05 38° SSW 22:43:37 64° W 22:48:05 10° NNW
Terra 2.3 22:43:04 40° ESE 22:44:03 46° ENE 22:48:35 10° N
H-2A R/B 2.7 22:45:17 41° E 22:45:58 44° ENE 22:50:16 10° N
Cosmos 1697 Rocket 3.0 22:40:39 10° NNW 22:46:10 59° WSW 22:48:27 34° S
Lacrosse 5 rocket 3.4 22:43:48 10° NNW 22:47:38 25° NE 22:49:48 18° ENE
Cosmos 1812 Rocket 3.5 22:46:03 10° N 22:50:32 87° E 22:51:20 60° SSE
Cosmos 1805 3.8 22:47:03 10° N 22:50:34 44° ENE 22:50:34 44° ENE
CZ-4B R/B 4.2 22:49:00 10° NNE 22:53:41 35° E 22:53:41 35° E
Meteor 2-21 Rocket 4.4 22:49:24 10° N 22:55:28 80° W 22:57:57 38° S
Cosmos 1626 Rocket 4.4 22:54:10 25° SW 22:56:14 45° W 23:00:24 10° N
Cosmos 494 Rocket 4.5 22:56:28 40° E 22:56:28 40° E 23:01:09 10° NNE
Iridium 2 3.8 22:55:14 10° N 22:58:41 64° NE 22:58:41 64° NE
Cosmos 1833 Rocket 4.5 22:54:09 10° WSW 22:59:04 31° WNW 23:04:02 10° N
SL-16 R/B 3.1 22:54:51 10° N 23:00:05 37° ENE 23:01:37 31° E
Nadezhda 3 Rocket 4.0 23:00:38 43° SSE 23:02:49 72° E 23:09:10 10° N
Cosmos 2360 4.1 22:57:15 10° NNW 23:02:59 89° WSW 23:04:27 52° SSE
Cosmos 1544 3.3 23:00:04 10° N 23:03:12 63° NNE 23:03:12 63° NNE
SPOT 5 4.1 23:05:12 23° SW 23:06:38 29° W 23:10:27 10° NW
Cosmos 1825 Rocket 3.4 23:10:25 75° ENE 23:10:25 75° ENE 23:14:38 10° N
Cosmos 1953 Rocket 3.9 23:11:52 52° ENE 23:11:52 52° ENE 23:15:49 10° NNE
Cosmos 1758 3.6 23:08:22 10° N 23:11:51 58° NE 23:11:51 58° NE
Cosmos 1821 Rocket 4.2 23:10:13 10° N 23:16:26 57° E 23:17:49 48° SE
Spot 4 4.1 23:16:19 51° E 23:16:35 51° ENE 23:21:15 10° N
Cosmos 1271 Rocket 3.2 23:12:49 10° NNW 23:16:35 55° W 23:16:35 55° W
H-2A R/B 2.8 23:16:12 34° SW 23:17:35 41° W 23:22:23 10° NNW
Cosmos 1842 4.0 23:18:35 46° W 23:18:49 47° W 23:22:39 10° N
Lacrosse 5 1.8 23:18:42 45° SW 23:20:17 87° NW 23:25:23 10° NE
Cosmos-2242 4.1 23:23:08 10° N 23:26:24 34° NE 23:26:24 34° NE
Cosmos 2360 Rocket 3.5 23:30:11 10° N 23:35:03 29° ENE 23:36:19 26° E
Cosmos 1980 Rocket 3.0 23:31:03 10° NW 23:36:12 38° WSW 23:37:10 35° SW
CZ-4C R/B 4.4 23:38:56 38° N 23:38:56 38° N 23:41:23 10° N
Cosmos 1605 Rocket 4.4 23:33:30 10° N 23:39:20 45° ENE 23:40:00 43° E
Cosmos 1331 Rocket 3.8 23:34:35 10° NNW 23:39:47 89° WSW 23:39:53 86° S
USA 267 4.0 23:36:01 10° ENE 23:40:26 33° E 23:40:26 33° E
Cosmos 1535 Rocket 4.3 23:38:54 10° N 23:45:03 90° WSW 23:45:57 67° S
Cosmos 1110 Rocket 4.0 23:40:28 10° NNW 23:45:40 69° WSW 23:45:47 69° WSW
SeaSat 1 4.5 23:44:24 16° ENE 23:45:55 18° NE 23:49:12 10° N
ATLAS CENTAUR R/B 2.5 23:44:14 10° NNW 23:46:29 36° NW 23:46:29 36° NW
Cosmos 2322 Rocket 2.0 23:43:58 10° NNW 23:49:42 87° WSW 23:50:04 79° S
Cosmos 1302 Rocket 4.1 23:45:28 10° NNW 23:50:43 65° ENE 23:50:46 65° ENE
